Location: ???????
(55.5931°N, 39.3286°E)
Time: 06:40:35
(UTC+00:00)

Meteor 1-28 Rocket - Pass Details

Date: 14 April 2024
Orbit: 475 x 491 km, 97.5° (Epoch: 22 May)

Event Time Altitude Azimuth Distance (km) Brightness Sun altitude
Exits shadow 00:47:19 19° 247° (WSW) 1,229 4.5 -12.3°
Maximum altitude 00:48:14 21° 268° (W) 1,163 4.5 -12.2°
Drops below altitude 10° 00:51:06 10° 319° (NW) 1,712 5.8 -11.9°
Sets 00:53:35 0° 336° (NNW) 2,601 6.9 -11.6°
